Regional Weather Roundup
Issued by NWS

Home | Current Version | Previous Version | Text Only | Print | Product List | Glossary On
Versions: 1 2 3 4 5 6 7 8 9 10 11 12 13 14 15 16 17 18 19 20 21 22 23 24 25 26 27 28 29 30 31 32 33 34 35 36 37 38 39 40 41 42 43 44 45 46 47 48 49 50
000
ASUS45 KABQ 221710
RWRNM
NEW MEXICO REGIONAL WEATHER ROUNDUP
NATIONAL WEATHER SERVICE ALBUQUERQUE NM
1000 AM MST WED NOV 22 2017

NOTE: "FAIR" MEANS FEW OR NO CLOUDS BELOW 12,000 FEET AGL WITH NO
       SIGNIFICANT WEATHER OR OBSTRUCTIONS TO VISION.

      THIS PRODUCT IS RELEASED AS TWO VERSIONS.  ONE VERSION NEAR
      THE TOP OF THE HOUR CONTAINING PRELIMINARY DATA FROM ALBUQUERQUE
      AND OTHER STATIONS.  A FINAL VERSION WITH ADDITIONAL DATA IS
      ISSUED ABOUT 10 MINUTES AFTER THE HOUR.

NMZ501-503-504-510>518-221800-
NORTHWEST PLATEAU/NORTHCENTRAL MOUNTAINS

CITY           SKY/WX    TMP DP  RH WIND       PRES   REMARKS
FARMINGTON     FAIR      41  24  51 E7        30.43S
LOS ALAMOS     FAIR      44  29  54 CALM      30.46R
SANTA FE       FAIR      47  29  49 N13       30.42R
TAOS           FAIR      43  27  53 NE3       30.48S
ANGEL FIRE     FAIR      44  23  43 CALM      30.47S

$$
NMZ402-403-502-505>509-221800-
WESTCENTRAL MOUNTAINS/SOUTHWEST MOUNTAINS

CITY           SKY/WX    TMP DP  RH WIND       PRES   REMARKS
GALLUP         FAIR      44  25  47 CALM      30.48R
GRANTS         FAIR      44  26  49 NW7       30.47S
SILVER CITY    FAIR      56  21  25 CALM      30.44R

$$
NMZ407-409-411-412-221800-
SOUTHERN DESERTS

CITY           SKY/WX    TMP DP  RH WIND       PRES   REMARKS
DEMING         FAIR      56  25  30 E7        30.41S
LAS CRUCES     FAIR      57  25  29 E5        30.43R
HOLLOMAN AFB   FAIR      56  26  31 SW3       30.44F
ALAMOGORDO     FAIR      54  27  35 SW3       30.43F
T OR C         FAIR      54  23  30 CALM      30.42S

$$
NMZ519>523-221800-
CENTRAL VALLEYS/CENTRAL HIGHLANDS

CITY           SKY/WX    TMP DP  RH WIND       PRES   REMARKS
ALBUQUERQUE    PTSUNNY   46  28  49 NE3       30.44R
DOUBLE EAGLE   PTSUNNY   48  27  43 CALM      30.45R
MORIARTY ARPT  FAIR      50  29  44 CALM      30.42F
CLINES CORNERS FAIR      50  26  39 NW17G26   30.41R
BELEN          FAIR      48  26  41 CALM      30.44S
SOCORRO        FAIR      48  23  37 CALM      30.43F

$$
NMZ524>526-539-540-221800-
SOUTHCENTRAL MOUNTAINS

CITY           SKY/WX    TMP DP  RH WIND       PRES   REMARKS
RUIDOSO        FAIR      52  21  30 NW8       30.43S

$$
NMZ527>531-221800-
NORTHEAST HIGHLANDS/NORTHEAST PLAINS

CITY           SKY/WX    TMP DP  RH WIND       PRES   REMARKS
LAS VEGAS      FAIR      53  26  35 N6        30.39R
RATON          FAIR      43  29  57 CALM      30.36F
CLAYTON        FAIR      57  30  35 W8        30.29F

$$
NMZ532>537-221800-
EASTCENTRAL PLAINS

CITY           SKY/WX    TMP DP  RH WIND       PRES   REMARKS
SANTA ROSA     FAIR      47  28  46 S3        30.34F
TUCUMCARI      FAIR      52  28  39 NW8       30.33F
CANNON AFB     FAIR      48  27  43 SW12      30.38F
CLOVIS AIRPORT FAIR      48  27  44 SW13      30.38F

$$
NMZ028-029-538-221800-
SOUTHEAST PLAINS

CITY           SKY/WX    TMP DP  RH WIND       PRES   REMARKS
ROSWELL        FAIR      51  26  37 S8        30.38F
ARTESIA        FAIR      50  27  40 S14       30.40F
CARLSBAD       FAIR      52  29  41 S12       30.40F
HOBBS          SUNNY     50  27  40 S8        30.43F


$$




USA.gov is the U.S. government's official web portal to all federal, state and local government web resources and services.